| time (UTC) | temp F | wind direction | speed knots | gust knots | rain 1hr in | rain 24hr in | rain mn in | humidity % | barometer mb |
| 20260505162552 | 56 | 51 | 0.0 | 2.6 | 0.15 | 1.07 | 1.07 | 98 | 1015.4 |
| 20260505162053 | 56 | 98 | 0.0 | 2.6 | 0.14 | 1.07 | 1.07 | 98 | 1014.8 |
| 20260505161613 | 56 | 83 | 0.0 | 2.6 | 0.15 | 1.07 | 1.07 | 98 | 1015.6 |
| 20260505161053 | 56 | 0 | 0.0 | 2.6 | 0.14 | 1.05 | 1.05 | 98 | 1014.6 |
| 20260505160553 | 56 | 0 | 0.0 | 1.7 | 0.13 | 1.03 | 1.03 | 98 | 1014.3 |
| 20260505153051 | 56 | 0 | 0.0 | 2.6 | 0.03 | 0.92 | 0.92 | 98 | 1014.4 |
| 20260505152553 | 56 | 0 | 0.0 | 2.6 | 0.03 | 0.92 | 0.92 | 98 | 1014.3 |
| 20260505152053 | 56 | 0 | 0.0 | 1.7 | 0.03 | 0.92 | 0.92 | 98 | 1014.1 |
| 20260505151558 | 56 | 0 | 0.0 | 2.6 | 0.03 | 0.91 | 0.91 | 98 | 1014.4 |
| 20260505151055 | 56 | 80 | 0.0 | 2.6 | 0.03 | 0.91 | 0.91 | 98 | 1014.3 |
| 20260505150553 | 56 | 0 | 0.0 | 2.6 | 0.03 | 0.90 | 0.90 | 98 | 1014.4 |
| 20260505140553 | 55 | 0 | 0.0 | 2.6 | 0.06 | 0.87 | 0.87 | 97 | 1015.8 |
| 20260505130111 | 56 | 123 | 0.9 | 6.1 | 0.34 | 0.79 | 0.79 | 96 | 1016.4 |
| 20260505124600 | 56 | 231 | 2.6 | 6.1 | 0.32 | 0.75 | 0.75 | 96 | 1016.0 |
| 20260505124053 | 56 | 0 | 0.9 | 4.3 | 0.31 | 0.74 | 0.74 | 96 | 1016.1 |
| 20260505123553 | 56 | 235 | 0.9 | 4.3 | 0.30 | 0.74 | 0.74 | 96 | 1016.2 |
| 20260505123054 | 56 | 197 | 0.9 | 6.1 | 0.29 | 0.72 | 0.72 | 95 | 1016.4 |
| 20260505122553 | 56 | 236 | 1.7 | 6.1 | 0.27 | 0.70 | 0.70 | 95 | 1016.4 |
| 20260505122051 | 57 | 214 | 3.5 | 8.7 | 0.25 | 0.69 | 0.69 | 94 | 1016.3 |
| 20260505121552 | 57 | 235 | 3.5 | 8.7 | 0.24 | 0.67 | 0.67 | 93 | 1016.4 |
| 20260505121053 | 59 | 228 | 1.7 | 10.4 | 0.20 | 0.63 | 0.63 | 92 | 1016.5 |
| 20260505120553 | 61 | 236 | 6.1 | 10.4 | 0.18 | 0.61 | 0.61 | 91 | 1016.6 |
| 20260505120111 | 62 | 227 | 2.6 | 3.5 | 0.01 | 0.44 | 0.44 | 91 | 1015.6 |
| 20260505115552 | 63 | 51 | 0.0 | 0.9 | 0.00 | 0.44 | 0.44 | 90 | 1015.5 |
| 20260505115055 | 63 | 0 | 0.0 | 1.7 | 0.00 | 0.44 | 0.44 | 89 | 1015.3 |
| 20260505114555 | 64 | 0 | 0.0 | 1.7 | 0.00 | 0.43 | 0.43 | 87 | 1015.3 |
| 20260505114051 | 64 | 321 | 0.0 | 1.7 | 0.00 | 0.43 | 0.43 | 86 | 1015.3 |
| 20260505113554 | 64 | 67 | 0.0 | 2.6 | 0.00 | 0.43 | 0.43 | 85 | 1015.2 |
| 20260505113105 | 65 | 91 | 0.0 | 2.6 | 0.00 | 0.43 | 0.43 | 85 | 1015.0 |
| 20260505112557 | 65 | 29 | 0.0 | 3.5 | 0.00 | 0.43 | 0.43 | 85 | 1015.1 |
| 20260505112050 | 65 | 0 | 0.0 | 3.5 | 0.00 | 0.43 | 0.43 | 85 | 1015.0 |
| 20260505111553 | 65 | 25 | 0.0 | 3.5 | 0.00 | 0.43 | 0.43 | 84 | 1015.0 |
| 20260505111055 | 65 | 65 | 0.9 | 3.5 | 0.00 | 0.43 | 0.43 | 84 | 1015.1 |
| 20260505110553 | 65 | 0 | 0.9 | 5.2 | 0.00 | 0.43 | 0.43 | 84 | 1015.3 |
| 20260505110106 | 65 | 25 | 0.9 | 7.8 | 0.00 | 0.43 | 0.43 | 83 | 1015.2 |
| 20260505102052 | 67 | 73 | 2.6 | 7.0 | 0.00 | 0.43 | 0.43 | 81 | 1016.2 |
| 20260505101552 | 67 | 56 | 2.6 | 7.8 | 0.00 | 0.43 | 0.43 | 81 | 1016.3 |
| 20260505101052 | 67 | 63 | 0.9 | 7.8 | 0.00 | 0.43 | 0.43 | 82 | 1016.5 |
| 20260505100555 | 67 | 62 | 3.5 | 7.8 | 0.00 | 0.43 | 0.43 | 81 | 1016.5 |
| 20260505100056 | 66 | 319 | 2.6 | 7.0 | 0.00 | 0.43 | 0.43 | 83 | 1016.7 |
| 20260505095552 | 66 | 53 | 1.7 | 7.0 | 0.00 | 0.43 | 0.43 | 85 | 1016.7 |
| 20260505095053 | 65 | 55 | 1.7 | 7.0 | 0.00 | 0.43 | 0.43 | 84 | 1016.8 |
| 20260505094555 | 65 | 71 | 2.6 | 7.8 | 0.00 | 0.43 | 0.43 | 84 | 1016.9 |
| 20260505094055 | 65 | 118 | 1.7 | 7.8 | 0.00 | 0.43 | 0.43 | 85 | 1017.0 |
| 20260505093553 | 65 | 38 | 2.6 | 7.0 | 0.00 | 0.43 | 0.43 | 84 | 1017.1 |
| 20260505093053 | 64 | 23 | 2.6 | 7.8 | 0.00 | 0.43 | 0.43 | 85 | 1017.1 |
| 20260505092553 | 64 | 78 | 2.6 | 10.4 | 0.00 | 0.43 | 0.43 | 85 | 1017.3 |
| 20260505092053 | 64 | 337 | 1.7 | 10.4 | 0.00 | 0.43 | 0.43 | 86 | 1017.3 |
| 20260505091554 | 63 | 68 | 0.9 | 10.4 | 0.00 | 0.43 | 0.43 | 87 | 1017.5 |
| 20260505091050 | 63 | 74 | 0.9 | 5.2 | 0.00 | 0.43 | 0.43 | 88 | 1017.6 |
| 20260505090553 | 63 | 105 | 1.7 | 6.1 | 0.00 | 0.43 | 0.43 | 87 | 1017.6 |
| 20260505090059 | 63 | 321 | 1.7 | 7.0 | 0.00 | 0.43 | 0.43 | 87 | 1017.7 |
| 20260505085552 | 63 | 73 | 2.6 | 7.0 | 0.00 | 0.43 | 0.43 | 88 | 1017.8 |
| 20260505085053 | 62 | 72 | 0.9 | 6.1 | 0.00 | 0.43 | 0.43 | 91 | 1018.0 |
| 20260505084551 | 62 | 73 | 1.7 | 8.7 | 0.00 | 0.43 | 0.43 | 91 | 1018.1 |
| 20260505084052 | 61 | 345 | 3.5 | 8.7 | 0.00 | 0.43 | 0.43 | 91 | 1018.3 |
| 20260505083552 | 61 | 77 | 1.7 | 7.0 | 0.00 | 0.43 | 0.43 | 93 | 1018.4 |
| 20260505083054 | 61 | 45 | 1.7 | 7.0 | 0.00 | 0.43 | 0.43 | 95 | 1018.5 |
| 20260505082553 | 60 | 112 | 2.6 | 7.0 | 0.00 | 0.43 | 0.43 | 95 | 1018.5 |
| 20260505082053 | 60 | 39 | 2.6 | 7.0 | 0.00 | 0.43 | 0.43 | 97 | 1018.5 |
| 20260505081613 | 60 | 126 | 1.7 | 5.2 | 0.00 | 0.43 | 0.43 | 97 | 1018.6 |
| 20260505081053 | 60 | 15 | 0.9 | 4.3 | 0.00 | 0.43 | 0.43 | 98 | 1018.7 |
| 20260505080554 | 60 | 0 | 0.0 | 4.3 | 0.00 | 0.43 | 0.43 | 98 | 1018.8 |
| 20260505080107 | 60 | 0 | 0.9 | 5.2 | 0.00 | 0.43 | 0.43 | 98 | 1018.8 |
| 20260505075556 | 60 | 89 | 1.7 | 5.2 | 0.00 | 0.43 | 0.43 | 98 | 1019.0 |
| 20260505075052 | 60 | 117 | 0.9 | 5.2 | 0.00 | 0.43 | 0.43 | 98 | 1019.0 |
| 20260505074609 | 60 | 58 | 0.9 | 7.8 | 0.00 | 0.43 | 0.43 | 98 | 1019.1 |
| 20260505074053 | 59 | 82 | 1.7 | 7.8 | 0.00 | 0.43 | 0.43 | 98 | 1019.2 |
| 20260505073550 | 59 | 127 | 1.7 | 6.1 | 0.00 | 0.43 | 0.43 | 99 | 1019.4 |
| 20260505073055 | 59 | 0 | 0.0 | 1.7 | 0.00 | 0.43 | 0.43 | 99 | 1019.4 |
| 20260505072551 | 59 | 0 | 0.0 | 3.5 | 0.00 | 0.43 | 0.43 | 99 | 1019.5 |
| 20260505072053 | 59 | 30 | 0.0 | 3.5 | 0.00 | 0.43 | 0.43 | 99 | 1019.5 |
| 20260505071621 | 58 | 63 | 0.0 | 2.6 | 0.00 | 0.43 | 0.43 | 99 | 1019.5 |
| 20260505071050 | 58 | 0 | 0.0 | 2.6 | 0.00 | 0.43 | 0.43 | 99 | 1019.6 |
| 20260505070556 | 58 | 61 | 0.0 | 1.7 | 0.00 | 0.43 | 0.43 | 98 | 1019.5 |
| 20260505070110 | 57 | 68 | 0.0 | 1.7 | 0.00 | 0.43 | 0.43 | 98 | 1019.6 |
| 20260505065552 | 57 | 0 | 0.0 | 0.9 | 0.00 | 0.43 | 0.43 | 98 | 1019.7 |
| 20260505065052 | 58 | 0 | 0.0 | 1.7 | 0.00 | 0.43 | 0.43 | 98 | 1019.8 |
| 20260505064604 | 57 | 0 | 0.0 | 1.7 | 0.00 | 0.43 | 0.43 | 98 | 1020.0 |
| 20260505064056 | 57 | 0 | 0.0 | 2.6 | 0.00 | 0.43 | 0.43 | 98 | 1019.8 |
| 20260505063552 | 57 | 0 | 0.0 | 3.5 | 0.00 | 0.43 | 0.43 | 98 | 1019.7 |
| 20260505063052 | 57 | 0 | 0.9 | 3.5 | 0.00 | 0.43 | 0.43 | 98 | 1019.8 |
| 20260505062553 | 58 | 69 | 0.0 | 3.5 | 0.00 | 0.42 | 0.42 | 99 | 1020.1 |
| 20260505062051 | 57 | 75 | 0.9 | 3.5 | 0.02 | 0.42 | 0.42 | 98 | 1019.9 |
| 20260505061558 | 57 | 89 | 0.0 | 2.6 | 0.02 | 0.42 | 0.42 | 98 | 1019.7 |
| 20260505061055 | 56 | 86 | 0.0 | 2.6 | 0.02 | 0.42 | 0.42 | 98 | 1019.8 |
| 20260505060553 | 56 | 57 | 0.0 | 2.6 | 0.02 | 0.42 | 0.42 | 98 | 1019.7 |
| 20260505060053 | 57 | 31 | 0.9 | 2.6 | 0.02 | 0.42 | 0.42 | 98 | 1019.5 |
| 20260505055553 | 57 | 100 | 0.0 | 2.6 | 0.02 | 0.42 | 0.42 | 98 | 1019.5 |
| 20260505055053 | 56 | 0 | 0.0 | 1.7 | 0.02 | 0.42 | 0.42 | 98 | 1019.4 |
| 20260505054556 | 56 | 74 | 0.0 | 2.6 | 0.02 | 0.42 | 0.42 | 98 | 1019.6 |
| 20260505054055 | 56 | 63 | 0.0 | 3.5 | 0.02 | 0.42 | 0.42 | 98 | 1019.7 |
| 20260505053553 | 55 | 0 | 0.0 | 3.5 | 0.02 | 0.42 | 0.42 | 98 | 1019.4 |
| 20260505053104 | 55 | 59 | 0.9 | 3.5 | 0.02 | 0.42 | 0.42 | 98 | 1019.5 |
| 20260505052552 | 55 | 81 | 0.0 | 1.7 | 0.02 | 0.42 | 0.42 | 98 | 1019.7 |
| 20260505052056 | 55 | 83 | 0.0 | 0.0 | 0.00 | 0.40 | 0.40 | 98 | 1019.8 |
| 20260505051554 | 55 | 0 | 0.0 | 0.0 | 0.00 | 0.40 | 0.40 | 98 | 1019.7 |
| 20260505051053 | 54 | 0 | 0.0 | 0.9 | 0.00 | 0.40 | 0.40 | 98 | 1019.5 |
| 20260505050552 | 54 | 0 | 0.0 | 0.9 | 0.00 | 0.40 | 0.40 | 98 | 1019.5 |
| 20260505041555 | 54 | 0 | 0.0 | 2.6 | 0.00 | 0.40 | 0.40 | 98 | 1019.8 |
| 20260505041053 | 54 | 0 | 0.0 | 2.6 | 0.00 | 0.40 | 0.40 | 98 | 1019.8 |
| 20260505040553 | 54 | 89 | 0.0 | 1.7 | 0.00 | 0.40 | 0.40 | 98 | 1019.8 |
| 20260505040054 | 54 | 0 | 0.0 | 1.7 | 0.00 | 0.40 | 0.40 | 98 | 1019.9 |
| 20260505035551 | 54 | 0 | 0.0 | 1.7 | 0.00 | 0.40 | 0.40 | 98 | 1019.8 |
| 20260505035051 | 54 | 89 | 0.0 | 1.7 | 0.00 | 0.40 | 0.40 | 98 | 1019.8 |
| 20260505034557 | 54 | 89 | 0.0 | 0.9 | 0.00 | 0.40 | 0.40 | 98 | 1020.0 |
| 20260505034051 | 54 | 89 | 0.0 | 0.9 | 0.00 | 0.40 | 0.40 | 98 | 1020.0 |
| 20260505033551 | 54 | 0 | 0.0 | 0.9 | 0.00 | 0.40 | 0.40 | 98 | 1019.8 |
| 20260505033051 | 54 | 89 | 0.0 | 0.9 | 0.00 | 0.40 | 0.40 | 97 | 1019.8 |
| 20260505032551 | 54 | 0 | 0.0 | 0.9 | 0.00 | 0.40 | 0.40 | 97 | 1019.7 |
| 20260505032050 | 54 | 0 | 0.0 | 0.9 | 0.00 | 0.40 | 0.40 | 97 | 1019.6 |
| 20260505031549 | 55 | 0 | 0.0 | 0.9 | 0.00 | 0.40 | 0.40 | 97 | 1019.6 |
| 20260505031051 | 55 | 0 | 0.0 | 0.9 | 0.00 | 0.40 | 0.40 | 97 | 1019.7 |
| 20260505030552 | 55 | 0 | 0.0 | 2.6 | 0.01 | 0.40 | 0.40 | 97 | 1019.7 |
| 20260505030050 | 55 | 74 | 0.0 | 2.6 | 0.01 | 0.40 | 0.40 | 97 | 1019.6 |
| 20260505025550 | 54 | 53 | 0.0 | 1.7 | 0.02 | 0.40 | 0.40 | 97 | 1019.6 |
| 20260505025053 | 55 | 0 | 0.0 | 0.9 | 0.03 | 0.40 | 0.40 | 97 | 1019.8 |
| 20260505024552 | 55 | 0 | 0.0 | 1.7 | 0.05 | 0.40 | 0.40 | 97 | 1019.8 |
| 20260505024049 | 55 | 77 | 0.0 | 1.7 | 0.06 | 0.40 | 0.40 | 97 | 1019.6 |
| 20260505023550 | 55 | 53 | 0.0 | 2.6 | 0.07 | 0.40 | 0.40 | 97 | 1019.7 |
| 20260505023057 | 55 | 0 | 0.9 | 2.6 | 0.10 | 0.40 | 0.40 | 97 | 1019.8 |
| 20260505022550 | 55 | 84 | 0.0 | 2.6 | 0.12 | 0.40 | 0.40 | 97 | 1020.0 |
| 20260505022050 | 55 | 98 | 0.0 | 3.5 | 0.14 | 0.40 | 0.40 | 97 | 1019.9 |
| 20260505021549 | 55 | 0 | 0.9 | 4.3 | 0.13 | 0.39 | 0.39 | 97 | 1020.0 |
| 20260505021050 | 55 | 68 | 0.0 | 5.2 | 0.14 | 0.39 | 0.39 | 97 | 1020.0 |
| 20260505020550 | 55 | 81 | 1.7 | 5.2 | 0.15 | 0.38 | 0.38 | 97 | 1020.1 |
| 20260505020055 | 55 | 125 | 0.9 | 4.3 | 0.18 | 0.38 | 0.38 | 97 | 1020.4 |
| 20260505015552 | 55 | 94 | 0.9 | 4.3 | 0.22 | 0.37 | 0.37 | 97 | 1020.8 |
| 20260505015055 | 55 | 0 | 0.0 | 1.7 | 0.22 | 0.37 | 0.37 | 97 | 1020.9 |
| 20260505014550 | 55 | 0 | 0.0 | 1.7 | 0.28 | 0.34 | 0.34 | 96 | 1020.7 |
| 20260505014050 | 55 | 59 | 0.0 | 2.6 | 0.33 | 0.33 | 0.33 | 96 | 1020.9 |
| 20260505013549 | 55 | 181 | 0.9 | 6.1 | 0.31 | 0.31 | 0.31 | 96 | 1021.1 |
| 20260505013051 | 55 | 126 | 0.0 | 6.1 | 0.29 | 0.29 | 0.29 | 96 | 1021.4 |
| 20260505012551 | 55 | 0 | 1.7 | 6.1 | 0.27 | 0.27 | 0.27 | 96 | 1021.4 |
| 20260505012055 | 55 | 184 | 0.9 | 9.6 | 0.25 | 0.25 | 0.25 | 96 | 1021.5 |
| 20260505011554 | 55 | 233 | 2.6 | 12.2 | 0.25 | 0.25 | 0.25 | 96 | 1021.5 |
| 20260505011052 | 55 | 42 | 5.2 | 12.2 | 0.24 | 0.24 | 0.24 | 95 | 1021.6 |
| 20260505010549 | 55 | 215 | 3.5 | 9.6 | 0.22 | 0.22 | 0.22 | 95 | 1021.7 |
| 20260505010100 | 55 | 240 | 2.6 | 8.7 | 0.19 | 0.19 | 0.19 | 95 | 1021.7 |
| 20260505005549 | 56 | 201 | 3.5 | 10.4 | 0.15 | 0.15 | 0.15 | 95 | 1021.6 |
| 20260505005051 | 56 | 226 | 3.5 | 14.8 | 0.14 | 0.14 | 0.14 | 94 | 1021.7 |
| 20260505004555 | 57 | 230 | 4.3 | 14.8 | 0.05 | 0.05 | 0.05 | 93 | 1021.4 |
| 20260505004050 | 57 | 105 | 0.0 | 0.9 | 0.00 | 0.00 | 0.00 | 93 | 1021.1 |
| 20260505003552 | 57 | 0 | 0.0 | 0.0 | 0.00 | 0.00 | 0.00 | 93 | 1020.3 |
| 20260505003104 | 57 | 0 | 0.0 | 0.0 | 0.00 | 0.00 | 0.00 | 93 | 1020.1 |
| 20260505002550 | 57 | 0 | 0.0 | 0.0 | 0.00 | 0.00 | 0.00 | 93 | 1020.2 |
| 20260505002050 | 57 | 0 | 0.0 | 0.0 | 0.00 | 0.00 | 0.00 | 93 | 1020.3 |
| 20260505001553 | 57 | 0 | 0.0 | 0.0 | 0.00 | 0.00 | 0.00 | 93 | 1020.3 |
| 20260505001050 | 57 | 0 | 0.0 | 0.0 | 0.00 | 0.00 | 0.00 | 93 | 1020.3 |
| 20260505000553 | 57 | 0 | 0.0 | 0.0 | 0.00 | 0.00 | 0.00 | 93 | 1020.3 |
| 20260505000105 | 57 | 0 | 0.0 | 0.0 | 0.00 | 0.00 | 0.00 | 93 | 1020.3 |
| 20260504235551 | 57 | 0 | 0.0 | 0.0 | 0.00 | 0.00 | 0.00 | 93 | 1020.4 |
| 20260504235052 | 57 | 0 | 0.0 | 0.0 | 0.00 | 0.00 | 0.00 | 93 | 1020.4 |
| 20260504234553 | 57 | 0 | 0.0 | 0.0 | 0.00 | 0.00 | 0.00 | 93 | 1020.5 |
| 20260504234055 | 57 | 0 | 0.0 | 0.0 | 0.00 | 0.00 | 0.00 | 93 | 1020.6 |
| 20260504233551 | 57 | 0 | 0.0 | 0.0 | 0.00 | 0.00 | 0.00 | 93 | 1020.7 |
| 20260504233102 | 57 | 0 | 0.0 | 0.0 | 0.00 | 0.00 | 0.00 | 93 | 1020.7 |
| 20260504232550 | 57 | 0 | 0.0 | 0.0 | 0.00 | 0.00 | 0.00 | 93 | 1020.6 |
| 20260504232053 | 57 | 0 | 0.0 | 0.0 | 0.00 | 0.00 | 0.00 | 93 | 1020.7 |
| 20260504231552 | 57 | 0 | 0.0 | 0.0 | 0.00 | 0.00 | 0.00 | 93 | 1020.6 |
| 20260504231052 | 57 | 0 | 0.0 | 0.0 | 0.00 | 0.00 | 0.00 | 93 | 1020.6 |
| 20260504230551 | 57 | 0 | 0.0 | 0.0 | 0.00 | 0.00 | 0.00 | 93 | 1020.6 |
| 20260504230057 | 57 | 0 | 0.0 | 0.0 | 0.00 | 0.00 | 0.00 | 93 | 1020.7 |
| 20260504225553 | 57 | 0 | 0.0 | 0.0 | 0.00 | 0.00 | 0.00 | 93 | 1020.7 |
| 20260504225055 | 57 | 0 | 0.0 | 0.0 | 0.00 | 0.00 | 0.00 | 93 | 1020.8 |
| 20260504224602 | 57 | 0 | 0.0 | 0.0 | 0.00 | 0.00 | 0.00 | 93 | 1020.8 |
| 20260504224055 | 57 | 0 | 0.0 | 0.0 | 0.00 | 0.00 | 0.00 | 93 | 1020.8 |
| 20260504223552 | 57 | 0 | 0.0 | 0.0 | 0.00 | 0.00 | 0.00 | 93 | 1020.7 |
| 20260504223057 | 57 | 0 | 0.0 | 0.0 | 0.00 | 0.00 | 0.00 | 93 | 1020.8 |
| 20260504222552 | 57 | 0 | 0.0 | 0.0 | 0.00 | 0.00 | 0.00 | 93 | 1020.9 |
| 20260504222052 | 57 | 0 | 0.0 | 0.0 | 0.00 | 0.00 | 0.00 | 93 | 1021.0 |
| 20260504221604 | 57 | 0 | 0.0 | 0.0 | 0.00 | 0.00 | 0.00 | 93 | 1021.1 |
| 20260504221052 | 57 | 0 | 0.0 | 0.0 | 0.00 | 0.00 | 0.00 | 93 | 1021.3 |
| 20260504220552 | 57 | 0 | 0.0 | 0.0 | 0.00 | 0.00 | 0.00 | 94 | 1021.4 |
| 20260504220123 | 57 | 0 | 0.0 | 0.0 | 0.00 | 0.00 | 0.00 | 94 | 1021.5 |
| 20260504215549 | 57 | 0 | 0.0 | 0.0 | 0.00 | 0.00 | 0.00 | 94 | 1021.5 |
| 20260504215052 | 57 | 0 | 0.0 | 0.0 | 0.00 | 0.00 | 0.00 | 94 | 1021.5 |
| 20260504214558 | 57 | 0 | 0.0 | 0.0 | 0.00 | 0.00 | 0.00 | 93 | 1021.5 |
| 20260504214052 | 57 | 0 | 0.0 | 0.0 | 0.00 | 0.00 | 0.00 | 93 | 1021.6 |
| 20260504213552 | 57 | 0 | 0.0 | 0.0 | 0.00 | 0.00 | 0.00 | 93 | 1021.6 |
| 20260504213102 | 57 | 0 | 0.0 | 0.0 | 0.00 | 0.00 | 0.00 | 93 | 1021.6 |
| 20260504212551 | 57 | 0 | 0.0 | 0.0 | 0.00 | 0.00 | 0.00 | 93 | 1021.7 |
| 20260504212051 | 57 | 0 | 0.0 | 0.0 | 0.00 | 0.00 | 0.00 | 93 | 1021.8 |
| 20260504211555 | 58 | 0 | 0.0 | 0.0 | 0.00 | 0.00 | 0.00 | 93 | 1021.8 |
| 20260504211053 | 58 | 0 | 0.0 | 0.0 | 0.00 | 0.00 | 0.00 | 93 | 1021.8 |
| 20260504210548 | 58 | 0 | 0.0 | 0.0 | 0.00 | 0.00 | 0.00 | 93 | 1021.8 |
| 20260504210052 | 58 | 0 | 0.0 | 0.0 | 0.00 | 0.00 | 0.00 | 93 | 1021.8 |
| 20260504205554 | 58 | 0 | 0.0 | 0.0 | 0.00 | 0.00 | 0.00 | 92 | 1022.0 |
| 20260504205051 | 58 | 0 | 0.0 | 0.0 | 0.00 | 0.00 | 0.00 | 92 | 1022.1 |
| 20260504204556 | 58 | 0 | 0.0 | 0.0 | 0.00 | 0.00 | 0.00 | 92 | 1022.1 |
| 20260504204053 | 58 | 0 | 0.0 | 0.0 | 0.00 | 0.00 | 0.00 | 92 | 1022.2 |
| 20260504203552 | 58 | 0 | 0.0 | 0.0 | 0.00 | 0.00 | 0.00 | 92 | 1022.2 |
| 20260504203054 | 58 | 0 | 0.0 | 0.0 | 0.00 | 0.00 | 0.00 | 92 | 1022.2 |
| 20260504202549 | 58 | 0 | 0.0 | 0.0 | 0.00 | 0.00 | 0.00 | 92 | 1022.3 |
| 20260504202049 | 58 | 0 | 0.0 | 0.0 | 0.00 | 0.00 | 0.00 | 92 | 1022.4 |
| 20260504201551 | 58 | 0 | 0.0 | 0.0 | 0.00 | 0.00 | 0.00 | 92 | 1022.4 |
| 20260504201052 | 58 | 0 | 0.0 | 0.0 | 0.00 | 0.00 | 0.00 | 92 | 1022.5 |
| 20260504200552 | 58 | 0 | 0.0 | 0.0 | 0.00 | 0.00 | 0.00 | 92 | 1022.5 |
| 20260504200057 | 59 | 0 | 0.0 | 0.0 | 0.00 | 0.00 | 0.00 | 92 | 1022.5 |
| 20260504195550 | 59 | 0 | 0.0 | 0.0 | 0.00 | 0.00 | 0.00 | 92 | 1022.5 |
| 20260504195050 | 59 | 0 | 0.0 | 0.0 | 0.00 | 0.00 | 0.00 | 91 | 1022.6 |
| 20260504194552 | 59 | 0 | 0.0 | 0.0 | 0.00 | 0.00 | 0.00 | 91 | 1022.6 |
| 20260504194052 | 59 | 0 | 0.0 | 0.0 | 0.00 | 0.00 | 0.00 | 91 | 1022.5 |
| 20260504193553 | 59 | 0 | 0.0 | 0.0 | 0.00 | 0.00 | 0.00 | 91 | 1022.6 |
| 20260504193054 | 59 | 0 | 0.0 | 0.0 | 0.00 | 0.00 | 0.00 | 91 | 1022.6 |
| 20260504192551 | 59 | 0 | 0.0 | 0.0 | 0.00 | 0.00 | 0.00 | 90 | 1022.5 |
| 20260504192052 | 59 | 0 | 0.0 | 0.9 | 0.00 | 0.00 | 0.00 | 90 | 1022.6 |
| 20260504191557 | 60 | 0 | 0.0 | 0.9 | 0.00 | 0.00 | 0.00 | 90 | 1022.5 |
| 20260504191052 | 60 | 0 | 0.0 | 0.9 | 0.00 | 0.00 | 0.00 | 89 | 1022.5 |
| 20260504190552 | 60 | 0 | 0.0 | 0.0 | 0.00 | 0.00 | 0.00 | 89 | 1022.5 |
| 20260504190106 | 60 | 0 | 0.0 | 0.0 | 0.00 | 0.00 | 0.00 | 89 | 1022.5 |
| 20260504185551 | 60 | 0 | 0.0 | 0.0 | 0.00 | 0.00 | 0.00 | 89 | 1022.5 |
| 20260504185052 | 60 | 0 | 0.0 | 0.9 | 0.00 | 0.00 | 0.00 | 89 | 1022.5 |
| 20260504184611 | 60 | 0 | 0.0 | 0.9 | 0.00 | 0.00 | 0.00 | 88 | 1022.6 |
| 20260504184052 | 60 | 0 | 0.0 | 0.0 | 0.00 | 0.00 | 0.00 | 88 | 1022.5 |
| 20260504183552 | 60 | 0 | 0.0 | 0.0 | 0.00 | 0.00 | 0.00 | 88 | 1022.5 |
| 20260504183054 | 60 | 0 | 0.0 | 0.0 | 0.00 | 0.00 | 0.00 | 88 | 1022.5 |
| 20260504182551 | 61 | 0 | 0.0 | 0.0 | 0.00 | 0.00 | 0.00 | 88 | 1022.5 |
| 20260504182053 | 61 | 0 | 0.0 | 0.0 | 0.00 | 0.00 | 0.00 | 88 | 1022.4 |
| 20260504181551 | 61 | 0 | 0.0 | 0.0 | 0.00 | 0.00 | 0.00 | 87 | 1022.4 |
| 20260504181049 | 61 | 0 | 0.0 | 0.0 | 0.00 | 0.00 | 0.00 | 88 | 1022.4 |
| 20260504180549 | 61 | 0 | 0.0 | 0.0 | 0.00 | 0.00 | 0.00 | 87 | 1022.5 |
| 20260504180053 | 61 | 0 | 0.0 | 0.0 | 0.00 | 0.00 | 0.00 | 87 | 1022.5 |
| 20260504175552 | 61 | 0 | 0.0 | 0.0 | 0.00 | 0.00 | 0.00 | 87 | 1022.6 |
| 20260504175053 | 61 | 0 | 0.0 | 0.0 | 0.00 | 0.00 | 0.00 | 87 | 1022.5 |
| 20260504174550 | 61 | 0 | 0.0 | 0.0 | 0.00 | 0.00 | 0.00 | 87 | 1022.4 |
| 20260504174050 | 61 | 0 | 0.0 | 0.0 | 0.00 | 0.00 | 0.00 | 87 | 1022.4 |
| 20260504173551 | 61 | 0 | 0.0 | 0.0 | 0.00 | 0.00 | 0.00 | 87 | 1022.5 |
| 20260504173056 | 61 | 0 | 0.0 | 0.0 | 0.00 | 0.00 | 0.00 | 86 | 1022.5 |
| 20260504172551 | 61 | 0 | 0.0 | 0.0 | 0.00 | 0.00 | 0.00 | 86 | 1022.4 |
| 20260504172052 | 61 | 0 | 0.0 | 0.0 | 0.00 | 0.00 | 0.00 | 86 | 1022.4 |
| 20260504171553 | 62 | 0 | 0.0 | 0.0 | 0.00 | 0.00 | 0.00 | 86 | 1022.5 |
| 20260504171052 | 62 | 0 | 0.0 | 0.0 | 0.00 | 0.00 | 0.00 | 86 | 1022.4 |
| 20260504170552 | 62 | 0 | 0.0 | 0.0 | 0.00 | 0.00 | 0.00 | 86 | 1022.5 |